Location: Bay Shore Mobile Home Park
(38.5762°N, 75.0841°W)
Time: 15:55:31
(UTC+00:00)

ISS - Visible Passes

Search period start: 22 January 2026 00:00
Search period end: 01 February 2026 00:00
Orbit: 413 x 423 km, 51.6° (Epoch: 22 January)

Date Brightness Start Highest point End Pass type
(mag) Time Alt. Az. Time Alt. Az. Time Alt. Az.
23 Jan -1.2 23:57:35 10° NNW 23:58:08 12° N 23:58:08 12° N visible
24 Jan -1.5 23:09:57 10° N 23:11:23 12° NNE 23:12:14 11° NNE visible
25 Jan -1.9 23:57:43 10° NNW 23:59:20 21° N 23:59:20 21° N visible
26 Jan -2.1 23:09:53 10° NNW 23:12:26 20° NNE 23:13:35 17° NE visible
27 Jan -0.6 00:46:08 10° WNW 00:46:33 13° WNW 00:46:33 13° WNW visible
27 Jan -3.6 23:58:01 10° NW 00:00:56 63° NNW 00:00:56 63° NNW visible
28 Jan -3.3 23:09:57 10° NW 23:13:10 42° NE 23:15:30 16° ESE visible
29 Jan -0.7 00:47:16 10° W 00:48:29 16° WSW 00:48:29 16° WSW visible
29 Jan -2.2 23:58:36 10° WNW 00:01:39 33° SW 00:03:19 20° S visible
30 Jan -3.3 23:10:13 10° WNW 23:13:31 63° SW 23:16:49 10° SE visible
